Year,Month,Day,Hour,Minute,Value (Times are PST for temperature in C)
2018,07,16,00,00,20.40
2018,07,16,00,01,20.40
2018,07,16,00,02,20.40
2018,07,16,00,03,20.40
2018,07,16,00,04,20.50
2018,07,16,00,05,20.50
2018,07,16,00,06,20.50
2018,07,16,00,07,20.50
2018,07,16,00,08,20.50
2018,07,16,00,09,20.50
2018,07,16,00,10,20.60
2018,07,16,00,11,20.60
2018,07,16,00,12,20.60
2018,07,16,00,13,20.60
2018,07,16,00,14,20.60
2018,07,16,00,15,20.70
2018,07,16,00,16,20.70
2018,07,16,00,17,20.70
2018,07,16,00,18,20.70
2018,07,16,00,19,20.70
2018,07,16,00,20,20.70
2018,07,16,00,21,20.70
2018,07,16,00,22,20.70
2018,07,16,00,23,20.70
2018,07,16,00,24,20.70
2018,07,16,00,25,20.80
2018,07,16,00,26,20.80
2018,07,16,00,27,20.80
2018,07,16,00,28,20.80
2018,07,16,00,29,20.80
2018,07,16,00,30,20.80
2018,07,16,00,31,20.80
2018,07,16,00,32,20.90
2018,07,16,00,33,20.90
2018,07,16,00,34,20.90
2018,07,16,00,35,20.90
2018,07,16,00,36,20.90
2018,07,16,00,37,20.80
2018,07,16,00,38,20.80
2018,07,16,00,39,20.80
2018,07,16,00,40,20.80
2018,07,16,00,41,20.80
2018,07,16,00,42,20.70
2018,07,16,00,43,20.70
2018,07,16,00,44,20.70
2018,07,16,00,45,20.60
2018,07,16,00,46,20.60
2018,07,16,00,47,20.50
2018,07,16,00,48,20.50
2018,07,16,00,49,20.40
2018,07,16,00,50,20.40
2018,07,16,00,51,20.30
2018,07,16,00,52,20.30
2018,07,16,00,53,20.20
2018,07,16,00,54,20.20
2018,07,16,00,55,20.20
2018,07,16,00,56,20.10
2018,07,16,00,57,20.00
2018,07,16,00,58,19.90
2018,07,16,00,59,19.90
2018,07,16,01,00,19.80
2018,07,16,01,01,19.70
2018,07,16,01,02,19.60
2018,07,16,01,03,19.50
2018,07,16,01,04,19.50
2018,07,16,01,05,19.50
2018,07,16,01,06,19.50
2018,07,16,01,07,19.50
2018,07,16,01,08,19.50
2018,07,16,01,09,19.50
2018,07,16,01,10,19.50
2018,07,16,01,11,19.50
2018,07,16,01,12,19.60
2018,07,16,01,13,19.60
2018,07,16,01,14,19.70
2018,07,16,01,15,19.70
2018,07,16,01,16,19.70
2018,07,16,01,17,19.80
2018,07,16,01,18,19.70
2018,07,16,01,19,19.70
2018,07,16,01,20,19.70
2018,07,16,01,21,19.70
2018,07,16,01,22,19.70
2018,07,16,01,23,19.70
2018,07,16,01,24,19.70
2018,07,16,01,25,19.70
2018,07,16,01,26,19.70
2018,07,16,01,27,19.70
2018,07,16,01,28,19.70
2018,07,16,01,29,19.70
2018,07,16,01,30,19.70
2018,07,16,01,31,19.60
2018,07,16,01,32,19.60
2018,07,16,01,33,19.60
2018,07,16,01,34,19.60
2018,07,16,01,35,19.60
2018,07,16,01,36,19.60
2018,07,16,01,37,19.70
2018,07,16,01,38,19.70
2018,07,16,01,39,19.70
2018,07,16,01,40,19.70
2018,07,16,01,41,19.70
2018,07,16,01,42,19.60
2018,07,16,01,43,19.60
2018,07,16,01,44,19.50
2018,07,16,01,45,19.40
2018,07,16,01,46,19.40
2018,07,16,01,47,19.30
2018,07,16,01,48,19.30
2018,07,16,01,49,19.20
2018,07,16,01,50,19.20
2018,07,16,01,51,19.10
2018,07,16,01,52,19.10
2018,07,16,01,53,19.10
2018,07,16,01,54,19.10
2018,07,16,01,55,19.00
2018,07,16,01,56,18.90
2018,07,16,01,57,18.90
2018,07,16,01,58,18.90
2018,07,16,01,59,18.90
2018,07,16,02,00,18.90
2018,07,16,02,01,18.90
2018,07,16,02,02,18.90
2018,07,16,02,03,18.90
2018,07,16,02,04,18.80
2018,07,16,02,05,18.80
2018,07,16,02,06,18.80
2018,07,16,02,07,18.70
2018,07,16,02,08,18.70
2018,07,16,02,09,18.70
2018,07,16,02,10,18.70
2018,07,16,02,11,18.70
2018,07,16,02,12,18.70
2018,07,16,02,13,18.80
2018,07,16,02,14,18.80
2018,07,16,02,15,18.80
2018,07,16,02,16,18.80
2018,07,16,02,17,18.90
2018,07,16,02,18,18.80
2018,07,16,02,19,18.80
2018,07,16,02,20,18.80
2018,07,16,02,21,18.90
2018,07,16,02,22,18.90
2018,07,16,02,23,18.90
2018,07,16,02,24,18.90
2018,07,16,02,25,18.90
2018,07,16,02,26,18.90
2018,07,16,02,27,18.90
2018,07,16,02,28,18.90
2018,07,16,02,29,18.90
2018,07,16,02,30,18.80
2018,07,16,02,31,18.80
2018,07,16,02,32,18.80
2018,07,16,02,33,18.80
2018,07,16,02,34,18.80
2018,07,16,02,35,18.70
2018,07,16,02,36,18.70
2018,07,16,02,37,18.70
2018,07,16,02,38,18.70
2018,07,16,02,39,18.60
2018,07,16,02,40,18.60
2018,07,16,02,41,18.60
2018,07,16,02,42,18.60
2018,07,16,02,43,18.60
2018,07,16,02,44,18.60
2018,07,16,02,45,18.60
2018,07,16,02,46,18.60
2018,07,16,02,47,18.60
2018,07,16,02,48,18.60
2018,07,16,02,49,18.60
2018,07,16,02,50,18.60
2018,07,16,02,51,18.60
2018,07,16,02,52,18.60
2018,07,16,02,53,18.60
2018,07,16,02,54,18.60
2018,07,16,02,55,18.50
2018,07,16,02,56,18.60
2018,07,16,02,57,18.60
2018,07,16,02,58,18.60
2018,07,16,02,59,18.60
2018,07,16,03,00,18.60
2018,07,16,03,01,18.60
2018,07,16,03,02,18.70
2018,07,16,03,03,18.70
2018,07,16,03,04,18.70
2018,07,16,03,05,18.80
2018,07,16,03,06,18.80
2018,07,16,03,07,18.80
2018,07,16,03,08,18.90
2018,07,16,03,09,18.90
2018,07,16,03,10,18.90
2018,07,16,03,11,18.90
2018,07,16,03,12,18.90
2018,07,16,03,13,18.90
2018,07,16,03,14,18.90
2018,07,16,03,15,18.90
2018,07,16,03,16,18.90
2018,07,16,03,17,18.90
2018,07,16,03,18,18.90
2018,07,16,03,19,18.90
2018,07,16,03,20,18.90
2018,07,16,03,21,18.90
2018,07,16,03,22,18.90
2018,07,16,03,23,18.80
2018,07,16,03,24,18.80
2018,07,16,03,25,18.70
2018,07,16,03,26,18.70
2018,07,16,03,27,18.70
2018,07,16,03,28,18.70
2018,07,16,03,29,18.60
2018,07,16,03,30,18.60
2018,07,16,03,31,18.60
2018,07,16,03,32,18.50
2018,07,16,03,33,18.50
2018,07,16,03,34,18.40
2018,07,16,03,35,18.30
2018,07,16,03,36,18.20
2018,07,16,03,37,18.20
2018,07,16,03,38,18.10
2018,07,16,03,39,18.00
2018,07,16,03,40,17.90
2018,07,16,03,41,17.90
2018,07,16,03,42,17.90
2018,07,16,03,43,17.80
2018,07,16,03,44,17.80
2018,07,16,03,45,17.80
2018,07,16,03,46,17.70
2018,07,16,03,47,17.70
2018,07,16,03,48,17.60
2018,07,16,03,49,17.60
2018,07,16,03,50,17.60
2018,07,16,03,51,17.50
2018,07,16,03,52,17.50
2018,07,16,03,53,17.50
2018,07,16,03,54,17.40
2018,07,16,03,55,17.40
2018,07,16,03,56,17.40
2018,07,16,03,57,17.30
2018,07,16,03,58,17.30
2018,07,16,03,59,17.30
2018,07,16,04,00,17.30
2018,07,16,04,01,17.30
2018,07,16,04,02,17.30
2018,07,16,04,03,17.30
2018,07,16,04,04,17.30
2018,07,16,04,05,17.30
2018,07,16,04,06,17.30
2018,07,16,04,07,17.20
2018,07,16,04,08,17.20
2018,07,16,04,09,17.20
2018,07,16,04,10,17.20
2018,07,16,04,11,17.20
2018,07,16,04,12,17.20
2018,07,16,04,13,17.10
2018,07,16,04,14,17.10
2018,07,16,04,15,17.10
2018,07,16,04,16,17.10
2018,07,16,04,17,17.10
2018,07,16,04,18,17.10
2018,07,16,04,19,17.10
2018,07,16,04,20,17.10
2018,07,16,04,21,17.10
2018,07,16,04,22,17.10
2018,07,16,04,23,17.10
2018,07,16,04,24,17.10
2018,07,16,04,25,17.10
2018,07,16,04,26,17.10
2018,07,16,04,27,17.10
2018,07,16,04,28,17.00
2018,07,16,04,29,17.00
2018,07,16,04,30,17.00
2018,07,16,04,31,16.90
2018,07,16,04,32,16.90
2018,07,16,04,33,16.90
2018,07,16,04,34,16.80
2018,07,16,04,35,16.80
2018,07,16,04,36,16.80
2018,07,16,04,37,16.80
2018,07,16,04,38,16.80
2018,07,16,04,39,16.80
2018,07,16,04,40,16.80
2018,07,16,04,41,16.80
2018,07,16,04,42,16.80
2018,07,16,04,43,16.80
2018,07,16,04,44,16.70
2018,07,16,04,45,16.70
2018,07,16,04,46,16.70
2018,07,16,04,47,16.70
2018,07,16,04,48,16.70
2018,07,16,04,49,16.70
2018,07,16,04,50,16.70
2018,07,16,04,51,16.70
2018,07,16,04,52,16.70
2018,07,16,04,53,16.70
2018,07,16,04,54,16.70
2018,07,16,04,55,16.70
2018,07,16,04,56,16.60
2018,07,16,04,57,16.60
2018,07,16,04,58,16.60
2018,07,16,04,59,16.60
2018,07,16,05,00,16.60
2018,07,16,05,01,16.50
2018,07,16,05,02,16.40
2018,07,16,05,03,16.40
2018,07,16,05,04,16.40
2018,07,16,05,05,16.40
2018,07,16,05,06,16.40
2018,07,16,05,07,16.40
2018,07,16,05,08,16.40
2018,07,16,05,09,16.40
2018,07,16,05,10,16.40
2018,07,16,05,11,16.40
2018,07,16,05,12,16.40
2018,07,16,05,13,16.40
2018,07,16,05,14,16.40
2018,07,16,05,15,16.40
2018,07,16,05,16,16.40
2018,07,16,05,17,16.40
2018,07,16,05,18,16.40
2018,07,16,05,19,16.40
2018,07,16,05,20,16.40
2018,07,16,05,21,16.50
2018,07,16,05,22,16.60
2018,07,16,05,23,16.60
2018,07,16,05,24,16.70
2018,07,16,05,25,16.70
2018,07,16,05,26,16.80
2018,07,16,05,27,16.90
2018,07,16,05,28,16.90
2018,07,16,05,29,17.00
2018,07,16,05,30,17.00
2018,07,16,05,31,17.00
2018,07,16,05,32,17.10
2018,07,16,05,33,17.20
2018,07,16,05,34,17.30
2018,07,16,05,35,17.30
2018,07,16,05,36,17.30
2018,07,16,05,37,17.40
2018,07,16,05,38,17.50
2018,07,16,05,39,17.60
2018,07,16,05,40,17.70
2018,07,16,05,41,17.80
2018,07,16,05,42,17.80
2018,07,16,05,43,17.90
2018,07,16,05,44,18.00
2018,07,16,05,45,18.10
2018,07,16,05,46,18.10
2018,07,16,05,47,18.20
2018,07,16,05,48,18.20
2018,07,16,05,49,18.20
2018,07,16,05,50,18.20
2018,07,16,05,51,18.20
2018,07,16,05,52,18.20
2018,07,16,05,53,18.20
2018,07,16,05,54,18.20
2018,07,16,05,55,18.30
2018,07,16,05,56,18.30
2018,07,16,05,57,18.30
2018,07,16,05,58,18.30
2018,07,16,05,59,18.30
2018,07,16,06,00,18.30
2018,07,16,06,01,18.30
2018,07,16,06,02,18.30
2018,07,16,06,03,18.30
2018,07,16,06,04,18.30
2018,07,16,06,05,18.30
2018,07,16,06,06,18.30
2018,07,16,06,07,18.40
2018,07,16,06,08,18.40
2018,07,16,06,09,18.40
2018,07,16,06,10,18.50
2018,07,16,06,11,18.50
2018,07,16,06,12,18.50
2018,07,16,06,13,18.60
2018,07,16,06,14,18.60
2018,07,16,06,15,18.60
2018,07,16,06,16,18.70
2018,07,16,06,17,18.70
2018,07,16,06,18,18.80
2018,07,16,06,19,18.80
2018,07,16,06,20,18.80
2018,07,16,06,21,18.90
2018,07,16,06,22,18.90
2018,07,16,06,23,18.90
2018,07,16,06,24,18.90
2018,07,16,06,25,19.00
2018,07,16,06,26,19.10
2018,07,16,06,27,19.10
2018,07,16,06,28,19.10
2018,07,16,06,29,19.10
2018,07,16,06,30,19.20
2018,07,16,06,31,19.20
2018,07,16,06,32,19.30
2018,07,16,06,33,19.30
2018,07,16,06,34,19.30
2018,07,16,06,35,19.40
2018,07,16,06,36,19.40
2018,07,16,06,37,19.50
2018,07,16,06,38,19.50
2018,07,16,06,39,19.60
2018,07,16,06,40,19.60
2018,07,16,06,41,19.70
2018,07,16,06,42,19.70
2018,07,16,06,43,19.80
2018,07,16,06,44,19.80
2018,07,16,06,45,19.80
2018,07,16,06,46,19.80
2018,07,16,06,47,19.80
2018,07,16,06,48,19.80
2018,07,16,06,49,19.80
2018,07,16,06,50,19.80
2018,07,16,06,51,19.80
2018,07,16,06,52,19.80
2018,07,16,06,53,19.90
2018,07,16,06,54,19.90
2018,07,16,06,55,19.90
2018,07,16,06,56,20.00
2018,07,16,06,57,20.10
2018,07,16,06,58,20.10
2018,07,16,06,59,20.20
2018,07,16,07,00,20.20
2018,07,16,07,01,20.30
2018,07,16,07,02,20.40
2018,07,16,07,03,20.50
2018,07,16,07,04,20.50
2018,07,16,07,05,20.60
2018,07,16,07,06,20.60
2018,07,16,07,07,20.70
2018,07,16,07,08,20.70
2018,07,16,07,09,20.70
2018,07,16,07,10,20.80
2018,07,16,07,11,20.80
2018,07,16,07,12,20.90
2018,07,16,07,13,20.90
2018,07,16,07,14,20.90
2018,07,16,07,15,21.00
2018,07,16,07,16,21.00
2018,07,16,07,17,21.10
2018,07,16,07,18,21.10
2018,07,16,07,19,21.20
2018,07,16,07,20,21.30
2018,07,16,07,21,21.40
2018,07,16,07,22,21.40
2018,07,16,07,23,21.50
2018,07,16,07,24,21.60
2018,07,16,07,25,21.70
2018,07,16,07,26,21.80
2018,07,16,07,27,21.90
2018,07,16,07,28,22.00
2018,07,16,07,29,22.00
2018,07,16,07,30,22.20
2018,07,16,07,31,22.20
2018,07,16,07,32,22.30
2018,07,16,07,33,22.40
2018,07,16,07,34,22.50
2018,07,16,07,35,22.50
2018,07,16,07,36,22.60
2018,07,16,07,37,22.50
2018,07,16,07,38,22.40
2018,07,16,07,39,22.40
2018,07,16,07,40,22.30
2018,07,16,07,41,22.30
2018,07,16,07,42,22.30
2018,07,16,07,43,22.20
2018,07,16,07,44,22.20
2018,07,16,07,45,22.10
2018,07,16,07,46,22.00
2018,07,16,07,47,22.00
2018,07,16,07,48,21.90
2018,07,16,07,49,21.90
2018,07,16,07,50,21.80
2018,07,16,07,51,21.80
2018,07,16,07,52,21.70
2018,07,16,07,53,21.70
2018,07,16,07,54,21.80
2018,07,16,07,55,21.80
2018,07,16,07,56,21.80
2018,07,16,07,57,21.80
2018,07,16,07,58,21.80
2018,07,16,07,59,21.90
2018,07,16,08,00,21.90
2018,07,16,08,01,21.90
2018,07,16,08,02,22.00
2018,07,16,08,03,22.00
2018,07,16,08,04,22.00
2018,07,16,08,05,22.00
2018,07,16,08,06,22.00
2018,07,16,08,07,22.00
2018,07,16,08,08,22.00
2018,07,16,08,09,21.90
2018,07,16,08,10,21.90
2018,07,16,08,11,21.90
2018,07,16,08,12,21.90
2018,07,16,08,13,21.90
2018,07,16,08,14,21.90
2018,07,16,08,15,21.90
2018,07,16,08,16,21.80
2018,07,16,08,17,21.60
2018,07,16,08,18,21.60
2018,07,16,08,19,21.60
2018,07,16,08,20,21.40
2018,07,16,08,21,21.40
2018,07,16,08,22,21.40
2018,07,16,08,23,21.40
2018,07,16,08,24,21.40
2018,07,16,08,25,21.40
2018,07,16,08,26,21.30
2018,07,16,08,27,21.30
2018,07,16,08,28,21.20
2018,07,16,08,29,21.10
2018,07,16,08,30,21.00
2018,07,16,08,31,21.00
2018,07,16,08,32,20.90
2018,07,16,08,33,20.80
2018,07,16,08,34,20.80
2018,07,16,08,35,20.80
2018,07,16,08,36,20.90
2018,07,16,08,37,20.90
2018,07,16,08,38,20.90
2018,07,16,08,39,20.90
2018,07,16,08,40,20.90
2018,07,16,08,41,21.00
2018,07,16,08,42,20.90
2018,07,16,08,43,20.90
2018,07,16,08,44,20.80
2018,07,16,08,45,20.80
2018,07,16,08,46,20.80
2018,07,16,08,47,20.80
2018,07,16,08,48,20.80
2018,07,16,08,49,20.80
2018,07,16,08,50,20.70
2018,07,16,08,51,20.60
2018,07,16,08,52,20.60
2018,07,16,08,53,20.50
2018,07,16,08,54,20.50
2018,07,16,08,55,20.50
2018,07,16,08,56,20.40
2018,07,16,08,57,20.40
2018,07,16,08,58,20.50
2018,07,16,08,59,20.60
2018,07,16,09,00,20.70
2018,07,16,09,01,20.70
2018,07,16,09,02,20.60
2018,07,16,09,03,20.60
2018,07,16,09,04,20.50
2018,07,16,09,05,20.50
2018,07,16,09,06,20.60
2018,07,16,09,07,20.70
2018,07,16,09,08,20.80
2018,07,16,09,09,20.90
2018,07,16,09,10,21.00
2018,07,16,09,11,21.10
2018,07,16,09,12,21.20
2018,07,16,09,13,21.20
2018,07,16,09,14,21.20
2018,07,16,09,15,21.20
2018,07,16,09,16,21.20
2018,07,16,09,17,21.20
2018,07,16,09,18,21.20
2018,07,16,09,19,21.30
2018,07,16,09,20,21.30
2018,07,16,09,21,21.30
2018,07,16,09,22,21.20
2018,07,16,09,23,21.10
2018,07,16,09,24,21.00
2018,07,16,09,25,20.90
2018,07,16,09,26,20.90
2018,07,16,09,27,20.90
2018,07,16,09,28,20.90
2018,07,16,09,29,21.00
2018,07,16,09,30,21.00
2018,07,16,09,31,20.90
2018,07,16,09,32,20.80
2018,07,16,09,33,20.70
2018,07,16,09,34,20.70
2018,07,16,09,35,20.60
2018,07,16,09,36,20.60
2018,07,16,09,37,20.60
2018,07,16,09,38,20.60
2018,07,16,09,39,20.70
2018,07,16,09,40,20.80
2018,07,16,09,41,20.80
2018,07,16,09,42,20.90
2018,07,16,09,43,20.90
2018,07,16,09,44,20.80
2018,07,16,09,45,20.80
2018,07,16,09,46,20.70
2018,07,16,09,47,20.70
2018,07,16,09,48,20.70
2018,07,16,09,49,20.60
2018,07,16,09,50,20.60
2018,07,16,09,51,20.60
2018,07,16,09,52,20.60
2018,07,16,09,53,20.60
2018,07,16,09,54,20.80
2018,07,16,09,55,21.00
2018,07,16,09,56,21.10
2018,07,16,09,57,21.00
2018,07,16,09,58,21.00
2018,07,16,09,59,21.00
2018,07,16,10,00,21.10
2018,07,16,10,01,21.00
2018,07,16,10,02,21.00
2018,07,16,10,03,21.00
2018,07,16,10,04,20.90
2018,07,16,10,05,20.90
2018,07,16,10,06,20.90
2018,07,16,10,07,20.90
2018,07,16,10,08,20.90
2018,07,16,10,09,21.00
2018,07,16,10,10,21.00
2018,07,16,10,11,21.10
2018,07,16,10,12,21.10
2018,07,16,10,13,21.10
2018,07,16,10,14,21.20
2018,07,16,10,15,21.20
2018,07,16,10,16,21.30
2018,07,16,10,17,21.30
2018,07,16,10,18,21.30
2018,07,16,10,19,21.40
2018,07,16,10,20,21.40
2018,07,16,10,21,21.30
2018,07,16,10,22,21.30
2018,07,16,10,23,21.30
2018,07,16,10,24,21.30
2018,07,16,10,25,21.30
2018,07,16,10,26,21.30
2018,07,16,10,27,21.30
2018,07,16,10,28,21.40
2018,07,16,10,29,21.50
2018,07,16,10,30,21.60
2018,07,16,10,31,21.70
2018,07,16,10,32,21.80
2018,07,16,10,33,21.80
2018,07,16,10,34,21.90
2018,07,16,10,35,21.90
2018,07,16,10,36,21.90
2018,07,16,10,37,21.90
2018,07,16,10,38,22.00
2018,07,16,10,39,22.00
2018,07,16,10,40,22.00
2018,07,16,10,41,22.00
2018,07,16,10,42,21.90
2018,07,16,10,43,21.90
2018,07,16,10,44,21.80
2018,07,16,10,45,21.70
2018,07,16,10,46,21.80
2018,07,16,10,47,21.80
2018,07,16,10,48,21.80
2018,07,16,10,49,21.80
2018,07,16,10,50,21.90
2018,07,16,10,51,22.00
2018,07,16,10,52,22.10
2018,07,16,10,53,22.20
2018,07,16,10,54,22.30
2018,07,16,10,55,22.20
2018,07,16,10,56,22.10
2018,07,16,10,57,22.10
2018,07,16,10,58,22.20
2018,07,16,10,59,22.30
2018,07,16,11,00,22.30
2018,07,16,11,01,22.50
2018,07,16,11,02,22.60
2018,07,16,11,03,22.60
2018,07,16,11,04,22.70
2018,07,16,11,05,22.80
2018,07,16,11,06,22.80
2018,07,16,11,07,22.80
2018,07,16,11,08,22.80
2018,07,16,11,09,22.70
2018,07,16,11,10,22.70
2018,07,16,11,11,22.70
2018,07,16,11,12,22.80
2018,07,16,11,13,22.80
2018,07,16,11,14,22.90
2018,07,16,11,15,22.90
2018,07,16,11,16,22.90
2018,07,16,11,17,22.90
2018,07,16,11,18,22.90
2018,07,16,11,19,22.90
2018,07,16,11,20,22.80
2018,07,16,11,21,22.60
2018,07,16,11,22,22.50
2018,07,16,11,23,22.50
2018,07,16,11,24,22.50
2018,07,16,11,25,22.50
2018,07,16,11,26,22.40
2018,07,16,11,27,22.30
2018,07,16,11,28,22.20
2018,07,16,11,29,22.00
2018,07,16,11,30,22.00
2018,07,16,11,31,21.90
2018,07,16,11,32,21.80
2018,07,16,11,33,21.80
2018,07,16,11,34,21.80
2018,07,16,11,35,21.90
2018,07,16,11,36,22.10
2018,07,16,11,37,22.20
2018,07,16,11,38,22.30
2018,07,16,11,39,22.30
2018,07,16,11,40,22.50
2018,07,16,11,41,22.60
2018,07,16,11,42,22.70
2018,07,16,11,43,22.80
2018,07,16,11,44,22.80
2018,07,16,11,45,22.70
2018,07,16,11,46,22.60
2018,07,16,11,47,22.50
2018,07,16,11,48,22.40
2018,07,16,11,49,22.40
2018,07,16,11,50,22.50
2018,07,16,11,51,22.60
2018,07,16,11,52,22.80
2018,07,16,11,53,22.90
2018,07,16,11,54,22.90
2018,07,16,11,55,22.80
2018,07,16,11,56,22.80
2018,07,16,11,57,22.70
2018,07,16,11,58,22.70
2018,07,16,11,59,22.80
2018,07,16,12,00,22.80
2018,07,16,12,01,22.90
2018,07,16,12,02,22.90
2018,07,16,12,03,22.90
2018,07,16,12,04,22.90
2018,07,16,12,05,22.90
2018,07,16,12,06,22.90
2018,07,16,12,07,22.90
2018,07,16,12,08,22.80
2018,07,16,12,09,22.80
2018,07,16,12,10,22.70
2018,07,16,12,11,22.60
2018,07,16,12,12,22.40
2018,07,16,12,13,22.30
2018,07,16,12,14,22.30
2018,07,16,12,15,22.40
2018,07,16,12,16,22.50
2018,07,16,12,17,22.50
2018,07,16,12,18,22.60
2018,07,16,12,19,22.70
2018,07,16,12,20,22.80
2018,07,16,12,21,22.80
2018,07,16,12,22,22.70
2018,07,16,12,23,22.60
2018,07,16,12,24,22.60
2018,07,16,12,25,22.50
2018,07,16,12,26,22.50
2018,07,16,12,27,22.60
2018,07,16,12,28,22.50
2018,07,16,12,29,22.50
2018,07,16,12,30,22.30
2018,07,16,12,31,22.20
2018,07,16,12,32,22.20
2018,07,16,12,33,22.20
2018,07,16,12,34,22.20
2018,07,16,12,35,22.30
2018,07,16,12,36,22.30
2018,07,16,12,37,22.50
2018,07,16,12,38,22.60
2018,07,16,12,39,22.70
2018,07,16,12,40,22.70
2018,07,16,12,41,22.70
2018,07,16,12,42,22.70
2018,07,16,12,43,22.70
2018,07,16,12,44,22.80
2018,07,16,12,45,22.80
2018,07,16,12,46,22.80
2018,07,16,12,47,22.80
2018,07,16,12,48,22.90
2018,07,16,12,49,22.90
2018,07,16,12,50,22.90
2018,07,16,12,51,23.10
2018,07,16,12,52,23.10
2018,07,16,12,53,23.20
2018,07,16,12,54,23.10
2018,07,16,12,55,22.90
2018,07,16,12,56,22.90
2018,07,16,12,57,23.00
2018,07,16,12,58,23.10
2018,07,16,12,59,23.10
2018,07,16,13,00,22.90
2018,07,16,13,01,22.90
2018,07,16,13,02,22.90
2018,07,16,13,03,22.90
2018,07,16,13,04,22.80
2018,07,16,13,05,22.80
2018,07,16,13,06,22.90
2018,07,16,13,07,22.90
2018,07,16,13,08,22.90
2018,07,16,13,09,22.90
2018,07,16,13,10,22.90
2018,07,16,13,11,22.90
2018,07,16,13,12,22.90
2018,07,16,13,13,22.90
2018,07,16,13,14,22.90
2018,07,16,13,15,22.90
2018,07,16,13,16,23.00
2018,07,16,13,17,23.10
2018,07,16,13,18,23.10
2018,07,16,13,19,23.10
2018,07,16,13,20,23.20
2018,07,16,13,21,23.30
2018,07,16,13,22,23.40
2018,07,16,13,23,23.50
2018,07,16,13,24,23.60
2018,07,16,13,25,23.70
2018,07,16,13,26,23.70
2018,07,16,13,27,23.70
2018,07,16,13,28,23.70
2018,07,16,13,29,23.70
2018,07,16,13,30,23.70
2018,07,16,13,31,23.70
2018,07,16,13,32,23.60
2018,07,16,13,33,23.60
2018,07,16,13,34,23.70
2018,07,16,13,35,23.70
2018,07,16,13,36,23.80
2018,07,16,13,37,23.90
2018,07,16,13,38,24.10
2018,07,16,13,39,24.00
2018,07,16,13,40,24.00
2018,07,16,13,41,24.10
2018,07,16,13,42,24.10
2018,07,16,13,43,24.10
2018,07,16,13,44,24.10
2018,07,16,13,45,24.10
2018,07,16,13,46,24.10
2018,07,16,13,47,24.10
2018,07,16,13,48,24.10
2018,07,16,13,49,24.10
2018,07,16,13,50,24.30
2018,07,16,13,51,24.30
2018,07,16,13,52,24.20
2018,07,16,13,53,24.20
2018,07,16,13,54,24.20
2018,07,16,13,55,24.10
2018,07,16,13,56,24.10
2018,07,16,13,57,24.10
2018,07,16,13,58,24.10
2018,07,16,13,59,24.00
2018,07,16,14,00,23.90
2018,07,16,14,01,23.90
2018,07,16,14,02,23.80
2018,07,16,14,03,23.90
2018,07,16,14,04,24.10
2018,07,16,14,05,24.20
2018,07,16,14,06,24.40
2018,07,16,14,07,24.50
2018,07,16,14,08,24.50
2018,07,16,14,09,24.50
2018,07,16,14,10,24.40
2018,07,16,14,11,24.40
2018,07,16,14,12,24.50
2018,07,16,14,13,24.60
2018,07,16,14,14,24.60
2018,07,16,14,15,24.60
2018,07,16,14,16,24.50
2018,07,16,14,17,24.40
2018,07,16,14,18,24.30
2018,07,16,14,19,24.20
2018,07,16,14,20,24.10
2018,07,16,14,21,24.10
2018,07,16,14,22,24.10
2018,07,16,14,23,24.10
2018,07,16,14,24,24.30
2018,07,16,14,25,24.30
2018,07,16,14,26,24.30
2018,07,16,14,27,24.40
2018,07,16,14,28,24.50
2018,07,16,14,29,24.60
2018,07,16,14,30,24.60
2018,07,16,14,31,24.70
2018,07,16,14,32,24.70
2018,07,16,14,33,24.70
2018,07,16,14,34,24.70
2018,07,16,14,35,24.70
2018,07,16,14,36,24.70
2018,07,16,14,37,24.70
2018,07,16,14,38,24.80
2018,07,16,14,39,24.80
2018,07,16,14,40,24.90
2018,07,16,14,41,24.90
2018,07,16,14,42,24.90
2018,07,16,14,43,25.00
2018,07,16,14,44,25.00
2018,07,16,14,45,25.00
2018,07,16,14,46,25.00
2018,07,16,14,47,25.00
2018,07,16,14,48,25.00
2018,07,16,14,49,25.00
2018,07,16,14,50,25.10
2018,07,16,14,51,25.20
2018,07,16,14,52,25.20
2018,07,16,14,53,25.30
2018,07,16,14,54,25.30
2018,07,16,14,55,25.30
2018,07,16,14,56,25.20
2018,07,16,14,57,25.20
2018,07,16,14,58,25.10
2018,07,16,14,59,25.10
2018,07,16,15,00,25.10
2018,07,16,15,01,25.20
2018,07,16,15,02,25.30
2018,07,16,15,03,25.40
2018,07,16,15,04,25.40
2018,07,16,15,05,25.50
2018,07,16,15,06,25.50
2018,07,16,15,07,25.60
2018,07,16,15,08,25.70
2018,07,16,15,09,25.80
2018,07,16,15,10,25.90
2018,07,16,15,11,25.90
2018,07,16,15,12,25.90
2018,07,16,15,13,26.00
2018,07,16,15,14,26.00
2018,07,16,15,15,26.20
2018,07,16,15,16,26.20
2018,07,16,15,17,26.20
2018,07,16,15,18,26.20
2018,07,16,15,19,26.20
2018,07,16,15,20,26.20
2018,07,16,15,21,26.30
2018,07,16,15,22,26.30
2018,07,16,15,23,26.30
2018,07,16,15,24,26.30
2018,07,16,15,25,26.30
2018,07,16,15,26,26.30
2018,07,16,15,27,26.20
2018,07,16,15,28,26.20
2018,07,16,15,29,26.20
2018,07,16,15,30,26.30
2018,07,16,15,31,26.40
2018,07,16,15,32,26.50
2018,07,16,15,33,26.60
2018,07,16,15,34,26.60
2018,07,16,15,35,26.70
2018,07,16,15,36,26.90
2018,07,16,15,37,27.00
2018,07,16,15,38,27.10
2018,07,16,15,39,26.90
2018,07,16,15,40,27.00
2018,07,16,15,41,27.10
2018,07,16,15,42,27.10
2018,07,16,15,43,27.20
2018,07,16,15,44,27.30
2018,07,16,15,45,27.30
2018,07,16,15,46,27.50
2018,07,16,15,47,27.60
2018,07,16,15,48,27.70
2018,07,16,15,49,27.90
2018,07,16,15,50,28.10
2018,07,16,15,51,28.20
2018,07,16,15,52,28.30
2018,07,16,15,53,28.40
2018,07,16,15,54,28.40
2018,07,16,15,55,28.60
2018,07,16,15,56,28.60
2018,07,16,15,57,28.80
2018,07,16,15,58,28.90
2018,07,16,15,59,28.90
2018,07,16,16,00,28.90
2018,07,16,16,01,28.90
2018,07,16,16,02,28.90
2018,07,16,16,03,28.90
2018,07,16,16,04,28.80
2018,07,16,16,05,28.70
2018,07,16,16,06,28.70
2018,07,16,16,07,28.80
2018,07,16,16,08,28.80
2018,07,16,16,09,28.80
2018,07,16,16,10,28.80
2018,07,16,16,11,28.80
2018,07,16,16,12,28.90
2018,07,16,16,13,28.80
2018,07,16,16,14,28.80
2018,07,16,16,15,28.90
2018,07,16,16,16,28.90
2018,07,16,16,17,28.90
2018,07,16,16,18,28.90
2018,07,16,16,19,28.90
2018,07,16,16,20,28.90
2018,07,16,16,21,28.90
2018,07,16,16,22,28.90
2018,07,16,16,23,28.90
2018,07,16,16,24,28.90
2018,07,16,16,25,28.90
2018,07,16,16,26,28.90
2018,07,16,16,27,29.00
2018,07,16,16,28,29.10
2018,07,16,16,29,29.00
2018,07,16,16,30,28.90
2018,07,16,16,31,28.90
2018,07,16,16,32,28.90
2018,07,16,16,33,28.90
2018,07,16,16,34,28.90
2018,07,16,16,35,28.90
2018,07,16,16,36,28.90
2018,07,16,16,37,28.90
2018,07,16,16,38,29.00
2018,07,16,16,39,29.10
2018,07,16,16,40,29.10
2018,07,16,16,41,29.10
2018,07,16,16,42,29.10
2018,07,16,16,43,29.20
2018,07,16,16,44,29.20
2018,07,16,16,45,29.20
2018,07,16,16,46,29.20
2018,07,16,16,47,29.20
2018,07,16,16,48,29.20
2018,07,16,16,49,29.10
2018,07,16,16,50,29.10
2018,07,16,16,51,29.10
2018,07,16,16,52,29.10
2018,07,16,16,53,29.10
2018,07,16,16,54,29.00
2018,07,16,16,55,28.90
2018,07,16,16,56,28.90
2018,07,16,16,57,28.90
2018,07,16,16,58,28.90
2018,07,16,16,59,28.90
2018,07,16,17,00,29.00
2018,07,16,17,01,29.00
2018,07,16,17,02,28.90
2018,07,16,17,03,28.90
2018,07,16,17,04,28.90
2018,07,16,17,05,28.80
2018,07,16,17,06,28.80
2018,07,16,17,07,28.70
2018,07,16,17,08,28.70
2018,07,16,17,09,28.70
2018,07,16,17,10,28.60
2018,07,16,17,11,28.50
2018,07,16,17,12,28.40
2018,07,16,17,13,28.30
2018,07,16,17,14,28.30
2018,07,16,17,15,28.20
2018,07,16,17,16,28.20
2018,07,16,17,17,28.20
2018,07,16,17,18,28.20
2018,07,16,17,19,28.20